Location: Newark
(3.0500°N, 36.0167°E)
Time: 09:44:49
(UTC+00:00)

Vanguard 2 - All Passes

Search period start: 26 August 2019 00:00
Search period end: 05 September 2019 00:00
Orbit: 554 x 2938 km, 32.9° (Epoch: 25 August)

Date Brightness Start Highest point End Pass type
(mag) Time Alt. Az. Time Alt. Az. Time Alt. Az.
26 Aug - 04:12:17 10° SSW 04:16:43 25° SSE 04:20:13 10° E daylight
26 Aug - 06:21:27 10° W 06:25:01 28° NNW 06:28:32 10° NNE daylight
26 Aug - 12:54:26 10° N 13:00:30 17° NNE 13:08:11 10° ENE daylight
26 Aug - 15:00:33 10° NW 15:12:28 52° NE 15:29:10 10° ESE daylight
26 Aug - 17:10:00 10° WNW 17:25:09 71° SW 17:43:05 10° SE visible
26 Aug - 19:24:51 10° W 19:39:10 30° SSW 19:52:46 10° SSE visible
26 Aug - 21:52:45 10° SSW 21:54:51 10° SSW 21:56:51 10° SSW night (unlit)
27 Aug - 04:29:44 10° SW 04:34:54 47° SSE 04:38:49 10° ENE daylight
27 Aug - 06:40:45 10° WNW 06:43:05 15° NNW 06:45:26 10° N daylight
27 Aug - 13:11:28 10° NNW 13:19:02 23° NNE 13:29:18 10° E daylight
27 Aug - 15:18:15 10° NW 15:30:38 66° NE 15:48:09 10° ESE daylight
27 Aug - 17:28:33 10° WNW 17:43:33 57° SW 18:00:56 10° SE visible
27 Aug - 19:45:24 10° WSW 19:58:07 24° SSW 20:10:05 10° SSE visible
28 Aug - 02:39:23 10° SSW 02:43:29 16° SSE 02:46:46 10° ESE visible
28 Aug - 04:47:38 10° SW 04:52:55 87° NW 04:56:55 10° NE daylight
28 Aug - 13:28:43 10° NNW 13:37:21 30° NE 13:49:46 10° E daylight
28 Aug - 15:36:08 10° NW 15:48:49 83° NE 16:06:47 10° ESE visible
28 Aug - 17:47:28 10° W 18:02:06 45° SSW 18:18:38 10° SE visible
28 Aug - 20:06:44 10° WSW 20:17:22 18° SSW 20:27:18 10° SSE visible
29 Aug - 02:56:14 10° SSW 03:02:02 25° SSE 03:06:11 10° E visible
29 Aug - 05:06:00 10° WSW 05:10:50 43° NW 05:14:39 10° NE daylight
29 Aug - 13:46:06 10° NNW 13:55:29 41° NE 14:09:37 10° ESE daylight
29 Aug - 15:54:11 10° WNW 16:07:04 80° SW 16:25:04 10° SE visible
29 Aug - 18:06:51 10° W 18:20:51 35° SSW 18:36:12 10° SSE visible
29 Aug - 20:28:55 10° SW 20:36:56 14° SSW 20:44:26 10° S visible
30 Aug - 01:05:47 10° S 01:09:17 12° SSE 01:12:17 10° SE visible
30 Aug - 03:13:39 10° SW 03:20:24 41° SSE 03:24:53 10° E visible
30 Aug - 05:24:55 10° W 05:28:42 22° NW 05:31:55 10° NNE daylight
30 Aug - 11:58:43 10° N 12:02:59 14° NNE 12:08:14 10° ENE daylight
30 Aug - 14:03:38 10° NW 14:13:32 54° NE 14:28:57 10° ESE daylight
30 Aug - 16:12:31 10° WNW 16:25:25 63° SW 16:43:07 10° SE visible
30 Aug - 18:26:48 10° W 18:39:49 28° SSW 18:53:41 10° SSE visible
30 Aug - 20:51:54 10° SSW 20:56:48 12° SSW 21:01:27 10° S visible
31 Aug - 01:22:04 10° SSW 01:28:12 18° SSE 01:32:47 10° ESE visible
31 Aug - 03:31:29 10° SW 03:38:34 71° SSE 03:43:09 10° ENE daylight
31 Aug - 05:44:56 10° WNW 05:46:39 12° NW 05:48:16 10° NNW daylight
31 Aug - 12:15:18 10° N 12:21:17 21° NE 12:29:27 10° E daylight
31 Aug - 14:21:20 10° NW 14:31:35 71° NE 14:47:51 10° ESE daylight
31 Aug - 16:31:07 10° WNW 16:43:58 50° SSW 17:00:57 10° SE visible
31 Aug - 18:47:24 10° WSW 18:59:04 22° SSW 19:11:07 10° SSE visible
31 Aug - 21:15:56 10° SSW 21:16:52 10° S 21:17:48 10° S visible
31 Aug - 23:30:56 10° S 23:33:53 11° S 23:36:33 10° SSE visible
01 Sep - 01:39:08 10° SSW 01:46:55 26° SSE 01:52:13 10° E visible
01 Sep - 03:49:42 10° WSW 03:56:33 66° NW 04:01:02 10° NE daylight
01 Sep - 12:32:21 10° NNW 12:39:22 29° NE 12:49:47 10° E daylight
01 Sep - 14:39:13 10° NW 14:49:42 90° SSW 15:06:22 10° SE daylight
01 Sep - 16:50:08 10° W 17:02:41 39° SSW 17:18:38 10° SSE visible
01 Sep - 19:08:42 10° SW 19:18:37 17° SSW 19:28:36 10° SSE visible
01 Sep - 23:46:58 10° SSW 23:53:13 15° SSE 23:58:15 10° SE visible
02 Sep - 01:56:36 10° SW 02:05:27 39° SSE 02:11:01 10° E visible
02 Sep - 04:08:22 10° WSW 04:14:23 37° NW 04:18:35 10° NNE daylight
02 Sep - 12:49:40 10° NNW 12:57:19 41° NE 13:09:29 10° ESE daylight
02 Sep - 14:57:20 10° WNW 15:07:57 71° SW 15:24:35 10° SE daylight
02 Sep - 17:09:37 10° W 17:21:37 30° SSW 17:36:13 10° SSE visible
02 Sep - 19:30:37 10° SW 19:38:29 14° SSW 19:46:15 10° SSE visible
02 Sep - 21:53:42 10° S 21:57:01 11° S 22:00:07 10° SSE night (unlit)
03 Sep - 00:03:52 10° SSW 00:12:19 20° SSE 00:18:31 10° ESE visible
03 Sep - 02:14:23 10° SW 02:23:47 60° SSE 02:29:24 10° ENE visible
03 Sep - 04:27:37 10° W 04:32:12 21° NW 04:35:43 10° NNE daylight
03 Sep - 11:03:29 10° NNE 11:05:50 12° NE 11:08:31 10° NE daylight
03 Sep - 13:07:11 10° NW 13:15:14 57° NE 13:28:39 10° ESE daylight
03 Sep - 15:15:43 10° WNW 15:26:23 54° SSW 15:42:33 10° SE daylight
03 Sep - 17:29:40 10° WSW 17:40:48 24° SSW 17:53:45 10° SSE visible
03 Sep - 19:52:39 10° SSW 19:58:36 12° S 20:04:23 10° SSE visible
03 Sep - 22:10:41 10° SSW 22:16:51 13° S 22:22:12 10° SE night (unlit)
04 Sep - 00:21:08 10° SSW 00:31:12 28° SSE 00:38:00 10° E visible
04 Sep - 02:32:31 10° SW 02:41:54 88° NW 02:47:27 10° NE visible
04 Sep - 04:48:01 10° WNW 04:50:05 12° NW 04:51:56 10° NNW daylight
04 Sep - 11:19:23 10° N 11:23:57 18° NE 11:30:02 10° ENE daylight
04 Sep - 13:24:55 10° NW 13:33:12 78° NE 13:47:23 10° ESE daylight
04 Sep - 15:34:27 10° W 15:45:02 42° SSW 16:00:20 10° SE visible
04 Sep - 17:50:22 10° WSW 18:00:17 19° SSW 18:11:18 10° SSE visible
04 Sep - 20:13:47 10° SSW 20:18:51 12° S 20:23:43 10° SSE visible
04 Sep - 22:27:52 10° SSW 22:36:25 17° SSE 22:43:20 10° SE night (unlit)
